Satellite-Ground Cal/Val Site Overpasses Predictions

Prediction of Satellite NPP Overpassing Cal/Val Site: Antarctic Dome C

Ground Cal/Val Site Location: Latitude: -75.10, Longitude: 123.35; Satellite-Ground Site NADIR distance within 100 km.

Table of predicted overpasses for the next 14.0 days since TLE Epoch: 12/10/2011
Interval Starting Time Ending Time Minimum Distance Time Minimum Distance (km)
1 12/10/2011 14:49:00 12/10/2011 14:49:28 12/10/2011 14:49:14 16.68
2 12/12/2011 07:31:46 12/12/2011 07:32:16 12/12/2011 07:32:01 4.88
3 12/15/2011 14:55:09 12/15/2011 14:55:37 12/15/2011 14:55:23 19.39
4 12/16/2011 14:36:25 12/16/2011 14:36:38 12/16/2011 14:36:32 87.75
5 12/17/2011 07:37:56 12/17/2011 07:38:23 12/17/2011 07:38:09 40.49
6 12/18/2011 07:19:07 12/18/2011 07:19:28 12/18/2011 07:19:18 69.73
7 12/20/2011 15:01:18 12/20/2011 15:01:42 12/20/2011 15:01:30 56.07
8 12/21/2011 14:42:27 12/21/2011 14:42:52 12/21/2011 14:42:39 53.29
9 12/22/2011 07:44:07 12/22/2011 07:44:26 12/22/2011 07:44:16 75.12


<
